Location: Gleizolles
(44.4833°N, 6.7667°E)
Time: 23:27:24
(UTC+00:00)

Vanguard 1 Rocket - Pass Details

Date: 01 July 2024
Orbit: 650 x 4220 km, 34.3° (Epoch: 24 July)

Event Time Altitude Azimuth Distance (km) Brightness Sun altitude
Rises 04:33:16 0° 277° (W) 6,296 11.2 5.4°
Reaches altitude 10° 04:37:06 10° 271° (W) 5,692 10.9 6.0°
Maximum altitude 04:54:29 43° 208° (SSW) 4,821 10.8 8.8°
Drops below altitude 10° 05:17:34 10° 148° (SSE) 7,330 12.2 12.7°
Sets 05:23:33 0° 142° (SE) 8,167 12.5 13.7°
